Location: *
(48.8489°N, 2.3218°E)
Time: 23:07:56
(UTC+00:00)

Okean 1 Rocket - Pass Details

Date: 23 August 2019
Orbit: 608 x 633 km, 82.5° (Epoch: 23 October)

Event Time Altitude Azimuth Distance (km) Brightness Sun altitude
Exits shadow 22:44:25 50° 352° (N) 787 3.8 -28.0°
Drops below altitude 10° 22:47:43 10° 7° (N) 1,976 6.4 -28.1°
Sets 22:49:57 0° 9° (N) 2,884 7.4 -28.3°
